• En España
  • Lista de países
  • Para 7 días
  • Temperatura del agua
  • Mapa Satelital
  • El tiempo en el mapa
  • Informadores
  • user-avatar
    Iniciar sesión

    Tiempo cada hora Yunusovo

    Hoy, 17 Octubre, Miércoles

    Tiempo Temperatura Precipitaciones Viento Presión Humedad
    00:00 +7°C° 0 mm 4 mps 755 mmHg 90%
    01:00 +7°C° 0 mm 4 mps 755 mmHg 90%
    02:00 +7°C° 0 mm 4 mps 754 mmHg 90%
    03:00 +6°C° 0 mm 4 mps 754 mmHg 91%
    04:00 +6°C° 0 mm 5 mps 754 mmHg 91%
    05:00 +6°C° 0 mm 5 mps 754 mmHg 92%
    06:00 +6°C° 0 mm 5 mps 753 mmHg 92%
    07:00 +6°C° 0 mm 5 mps 753 mmHg 90%
    08:00 +7°C° 0 mm 6 mps 754 mmHg 87%
    09:00 +8°C° 0 mm 6 mps 753 mmHg 85%
    10:00 +9°C° 0 mm 6 mps 754 mmHg 83%
    11:00 +9°C° 0 mm 6 mps 754 mmHg 82%
    12:00 +9°C° 0 mm 6 mps 755 mmHg 80%
    13:00 +9°C° 0 mm 6 mps 756 mmHg 77%
    14:00 +9°C° 0 mm 6 mps 756 mmHg 73%
    15:00 +9°C° 0 mm 5 mps 757 mmHg 69%
    16:00 +8°C° 0 mm 5 mps 758 mmHg 72%
    17:00 +7°C° 0 mm 4 mps 758 mmHg 75%
    18:00 +5°C° 0 mm 3 mps 759 mmHg 78%
    19:00 +5°C° 0 mm 3 mps 759 mmHg 81%
    20:00 +4°C° 0 mm 3 mps 760 mmHg 83%
    21:00 +4°C° 0 mm 3 mps 760 mmHg 85%
    22:00 +3°C° 0 mm 3 mps 760 mmHg 86%
    23:00 +4°C° 0 mm 2 mps 761 mmHg 87%

    Mañana, 18 Octubre, Jueves

    Tiempo Temperatura Precipitaciones Viento Presión Humedad
    00:00 +3°C° 0 mm 2 mps 761 mmHg 88%
    01:00 +3°C° 0 mm 2 mps 761 mmHg 88%
    02:00 +3°C° 0 mm 2 mps 761 mmHg 89%
    03:00 +3°C° 0 mm 2 mps 761 mmHg 89%
    04:00 +3°C° 0 mm 2 mps 761 mmHg 89%
    05:00 +3°C° 0 mm 2 mps 761 mmHg 88%
    06:00 +3°C° 0 mm 2 mps 761 mmHg 88%
    07:00 +4°C° 0 mm 2 mps 761 mmHg 84%
    08:00 +5°C° 0 mm 2 mps 761 mmHg 80%
    09:00 +4°C° 0 mm 3 mps 761 mmHg 76%
    10:00 +7°C° 0 mm 3 mps 761 mmHg 72%
    11:00 +8°C° 0 mm 3 mps 760 mmHg 68%
    12:00 +9°C° 0 mm 3 mps 760 mmHg 64%
    13:00 +9°C° 0 mm 3 mps 759 mmHg 66%
    14:00 +8°C° 0 mm 4 mps 759 mmHg 68%
    15:00 +8°C° 0 mm 4 mps 759 mmHg 71%
    16:00 +7°C° 0 mm 4 mps 758 mmHg 75%
    17:00 +7°C° 0 mm 4 mps 758 mmHg 79%
    18:00 +6°C° 0 mm 4 mps 757 mmHg 83%
    19:00 +6°C° 0 mm 4 mps 757 mmHg 84%
    20:00 +6°C° 0 mm 4 mps 757 mmHg 86%
    21:00 +6°C° 0 mm 4 mps 756 mmHg 87%
    22:00 +6°C° 0 mm 4 mps 756 mmHg 90%
    23:00 +6°C° 0 mm 4 mps 756 mmHg 92%

    Pasado mañana, 19 Octubre, Viernes

    Tiempo Temperatura Precipitaciones Viento Presión Humedad
    00:00 +6°C° 0 mm 4 mps 755 mmHg 94%
    01:00 +6°C° 0 mm 4 mps 755 mmHg 95%
    02:00 +5°C° 0 mm 4 mps 755 mmHg 96%
    03:00 +5°C° 0 mm 4 mps 755 mmHg 96%
    04:00 +5°C° 0 mm 4 mps 754 mmHg 96%
    05:00 +5°C° 0 mm 3 mps 754 mmHg 96%
    06:00 +5°C° 0 mm 3 mps 754 mmHg 96%
    07:00 +6°C° 0 mm 4 mps 754 mmHg 94%
    08:00 +7°C° 0 mm 4 mps 754 mmHg 91%
    09:00 +7°C° 0 mm 5 mps 754 mmHg 88%
    10:00 +9°C° 0 mm 5 mps 753 mmHg 83%
    11:00 +10°C° 0 mm 5 mps 753 mmHg 78%
    12:00 +12°C° 0 mm 5 mps 753 mmHg 73%
    13:00 +13°C° 0 mm 5 mps 753 mmHg 72%
    14:00 +13°C° 0 mm 5 mps 752 mmHg 72%
    15:00 +13°C° 0 mm 5 mps 752 mmHg 71%
    16:00 +12°C° 0 mm 5 mps 752 mmHg 76%
    17:00 +12°C° 0 mm 5 mps 752 mmHg 81%
    18:00 +11°C° 0 mm 4 mps 752 mmHg 86%
    19:00 +11°C° 0 mm 4 mps 752 mmHg 87%
    20:00 +11°C° 0 mm 4 mps 752 mmHg 89%
    21:00 +10°C° 0 mm 4 mps 752 mmHg 90%
    22:00 +10°C° 0 mm 4 mps 751 mmHg 91%
    23:00 +10°C° 0 mm 3 mps 751 mmHg 92%

    20 Octubre, Sábado

    Tiempo Temperatura Precipitaciones Viento Presión Humedad
    00:00 +10°C° 0 mm 3 mps 751 mmHg 94%
    01:00 +10°C° 0 mm 3 mps 751 mmHg 94%
    02:00 +10°C° 0 mm 3 mps 751 mmHg 95%
    03:00 +10°C° 0 mm 3 mps 751 mmHg 95%
    04:00 +10°C° 0.5 mm 3 mps 751 mmHg 95%
    05:00 +9°C° 0.5 mm 3 mps 750 mmHg 94%
    06:00 +8°C° 0.5 mm 4 mps 750 mmHg 94%
    07:00 +8°C° 0.6 mm 4 mps 750 mmHg 90%
    08:00 +8°C° 0.6 mm 4 mps 751 mmHg 86%
    09:00 +8°C° 0.6 mm 4 mps 751 mmHg 82%
    10:00 +8°C° 0 mm 4 mps 751 mmHg 77%
    11:00 +9°C° 0 mm 5 mps 751 mmHg 71%
    12:00 +9°C° 0 mm 5 mps 752 mmHg 66%
    13:00 +9°C° 0 mm 5 mps 752 mmHg 66%
    14:00 +9°C° 0 mm 5 mps 752 mmHg 67%
    15:00 +8°C° 0 mm 5 mps 752 mmHg 68%
    16:00 +8°C° 0 mm 4 mps 753 mmHg 71%
    17:00 +7°C° 0 mm 4 mps 753 mmHg 75%
    18:00 +7°C° 0 mm 3 mps 753 mmHg 78%
    19:00 +7°C° 0 mm 3 mps 753 mmHg 81%
    20:00 +5°C° 0 mm 3 mps 754 mmHg 84%
    21:00 +5°C° 0 mm 4 mps 754 mmHg 88%
    22:00 +5°C° 0 mm 4 mps 754 mmHg 89%
    23:00 +4°C° 0 mm 4 mps 754 mmHg 90%

    21 Octubre, Domingo

    Tiempo Temperatura Precipitaciones Viento Presión Humedad
    00:00 +4°C° 0 mm 4 mps 754 mmHg 91%
    01:00 +3°C° 0 mm 4 mps 755 mmHg 92%
    02:00 +3°C° 0 mm 3 mps 755 mmHg 93%
    03:00 +3°C° 0 mm 3 mps 755 mmHg 95%
    04:00 +3°C° 0 mm 3 mps 756 mmHg 94%
    05:00 +3°C° 0 mm 3 mps 756 mmHg 94%
    06:00 +3°C° 0 mm 3 mps 756 mmHg 94%
    07:00 +3°C° 0 mm 3 mps 757 mmHg 90%
    08:00 +3°C° 0 mm 3 mps 757 mmHg 85%
    09:00 +4°C° 0 mm 4 mps 758 mmHg 81%
    10:00 +5°C° 0 mm 4 mps 758 mmHg 76%
    11:00 +5°C° 0 mm 4 mps 758 mmHg 70%
    12:00 +6°C° 0 mm 4 mps 758 mmHg 64%
    13:00 +6°C° 0 mm 4 mps 759 mmHg 65%
    14:00 +6°C° 0 mm 4 mps 759 mmHg 65%
    15:00 +6°C° 0 mm 4 mps 759 mmHg 66%
    16:00 +5°C° 0 mm 3 mps 759 mmHg 70%
    17:00 +4°C° 0 mm 3 mps 760 mmHg 73%
    18:00 +3°C° 0 mm 3 mps 760 mmHg 77%
    19:00 +4°C° 0 mm 2 mps 760 mmHg 80%
    20:00 +3°C° 0 mm 2 mps 761 mmHg 83%
    21:00 +3°C° 0 mm 2 mps 761 mmHg 85%
    22:00 +2°C° 0 mm 2 mps 761 mmHg 87%
    23:00 +3°C° 0 mm 1 mps 761 mmHg 89%

    22 Octubre, Lunes

    Tiempo Temperatura Precipitaciones Viento Presión Humedad
    00:00 +2°C° 0 mm 1 mps 761 mmHg 90%
    01:00 +2°C° 0 mm 1 mps 762 mmHg 90%
    02:00 +2°C° 0 mm 1 mps 762 mmHg 90%
    03:00 +2°C° 0 mm 1 mps 762 mmHg 91%
    04:00 +1°C° 0 mm 1 mps 762 mmHg 91%
    05:00 +1°C° 0 mm 1 mps 762 mmHg 91%
    06:00 +1°C° 0 mm 1 mps 762 mmHg 91%
    07:00 +1°C° 0 mm 2 mps 762 mmHg 87%
    08:00 +2°C° 0 mm 2 mps 762 mmHg 83%
    09:00 +3°C° 0 mm 2 mps 762 mmHg 79%
    10:00 +3°C° 0 mm 3 mps 762 mmHg 76%
    11:00 +4°C° 0 mm 3 mps 761 mmHg 72%
    12:00 +5°C° 0 mm 4 mps 761 mmHg 69%
    13:00 +5°C° 0 mm 4 mps 760 mmHg 70%
    14:00 +5°C° 0 mm 4 mps 760 mmHg 71%
    15:00 +5°C° 0 mm 4 mps 759 mmHg 72%
    16:00 +5°C° 0 mm 4 mps 759 mmHg 75%
    17:00 +3°C° 0 mm 5 mps 759 mmHg 78%
    18:00 +2°C° 0 mm 5 mps 758 mmHg 81%
    19:00 +2°C° 0 mm 5 mps 758 mmHg 81%
    20:00 +2°C° 0 mm 5 mps 758 mmHg 81%
    21:00 +2°C° 0 mm 6 mps 757 mmHg 81%
    22:00 +2°C° 0 mm 6 mps 757 mmHg 80%
    23:00 +2°C° 0 mm 6 mps 756 mmHg 79%
    Mostrar más